Other Public Products
Issued by NWS Grand Forks, ND

Home | Current Version | Previous Version | Text Only | Print | Product List | Glossary On
Versions: 1 2 3 4 5 6 7 8 9 10 11 12 13 14 15 16 17 18 19 20 21 22 23 24 25 26 27 28 29 30 31 32 33 34 35 36 37 38 39 40 41 42 43 44 45 46 47 48 49 50
628
FPUS83 KFGF 230910
OPUFGF
PRAIRIE TO PINES WEATHER ROUNDUP
NATIONAL WEATHER SERVICE EASTERN NORTH DAKOTA/GRAND FORKS ND
300 AM CST FRI FEB 23 2018

 **SATELLITE DATA USED TO AUGMENT SKY COVER AT AUTOMATED STATIONS**
 *****  WEATHER ACROSS EASTERN NORTH DAKOTA  *****

CITY           SKY/WX    TMP DP  RH WIND       PRES   REMARKS
GRAND FORKS    LGT SNOW  18  15  88 N10       30.17F FOG     WCI   6
GRND FORKS AFB FLURRIES  16  13  88 N8        30.17F WCI   5
GRND FORKS NWS   N/A     17  16  95 VRB6      30.14F WCI   9
BUXTON           N/A     18  18  99 CALM        N/A
DEVILS LAKE    CLOUDY     7   3  84 NW7       30.16S WCI  -5
FARGO          LGT SNOW  20  19  96 N9        30.13F FOG     WCI   9
WAHPETON ARPT  CLOUDY    21  19  93 N5        30.12F WCI  15
$$

 *****  WEATHER ACROSS CENTRAL AND WESTERN NORTH DAKOTA  *****

CITY           SKY/WX    TMP DP  RH WIND       PRES   REMARKS
JAMESTOWN      LGT SNOW  18  15  88 NW14      30.13S FOG     WCI   4
BISMARCK       MOCLDY    11   4  73 NW12      30.19R WCI  -3
MINOT          FAIR       2  -4  76 W9        30.19R WCI -13
MINOT AFB      FAIR       1  -5  77 NW14      30.18R WCI -18
GARRISON         N/A     -3  -8  79 NW13      30.18S WCI -22
WILLISTON      FAIR      -9 -14  78 SW7       30.25S WCI -24
DICKINSON      FAIR      -2  -7  79 NW13      30.13F WCI -20
HETTINGER      CLOUDY     1  -5  75 NW12      30.15S WCI -16
$$

 *****  OTHER OBSERVATIONS NORTHEAST NORTH DAKOTA  *****

CITY           SKY/WX    TMP DP  RH WIND       PRES   REMARKS
WALHALLA       FAIR       9   3  78 CALM      30.17F
LANGDON        FAIR       5   1  85 NW8       30.13F WCI  -8
CAVALIER         N/A     10   5  79 NW5       30.17F WCI   2
GRAFTON        FAIR      14  10  85 NW5       30.20F WCI   6
CANDO          PTSUNNY    7   1  78 NW8       30.17S WCI  -6
FORT TOTTEN    NOT AVBL
ROLLA          CLOUDY     7   0  72 NW9       30.13F WCI  -7
RUGBY          PTSUNNY   -2  -6  84 W8        30.16F WCI -17
 ***** THE ABOVE OBSERVATIONS ARE NON NWS ARE NOT QUALITY
        CONTROLLED AND MAY MIS-REPORT RAIN FOR SNOW...
$$

 *****  OTHER OBSERVATIONS SOUTHEAST NORTH DAKOTA *****

CITY           SKY/WX    TMP DP  RH WIND       PRES   REMARKS
COOPERSTOWN    LGT SNOW  18  18 100 N12       30.13F WCI   5
VALLEY CITY    LGT SNOW  18  18 100 N6        30.14F WCI   9
OAKES            N/A     18  18 100 N8        30.11F WCI   7
GWINNER          N/A     19  19 100 N8        30.10F FOG     WCI   9
SHEYENNE NWR     N/A     20  20 100 N5        29.95S WCI  13
BUFFALO          N/A     19  17  93 SW6         N/A  WCI  11
WYNDMERE       NOT AVBL
 ***** THE ABOVE OBSERVATIONS ARE NON NWS ARE NOT QUALITY
       CONTROLLED AND MAY MIS-REPORT RAIN FOR SNOW...
$$

  *****  WEATHER ACROSS NORTHERN MINNESOTA  *****

CITY           SKY/WX    TMP DP  RH WIND       PRES   REMARKS
FLAG ISLAND    CLOUDY     9   3  78 CALM      30.15F
WARROAD        FAIR      12   9  85 CALM      30.16F
ROSEAU         MOCLDY    12   9  85 CALM      30.16F
HALLOCK        FAIR      10   9  92 CALM      30.17F
THF RVR FALLS  LGT SNOW  17  14  88 CALM      30.15F FOG
HALSTAD        NOT AVBL
FOSSTON        LGT SNOW  19  16  86 N5        30.12F WCI  13
BAUDETTE       LGT SNOW  17   9  70 CALM      30.14F
WASKISH        LGT RAIN  19  18  93 CALM      30.13F
CROOKSTON      LGT SNOW  18  16  93 CALM      30.17F
$$
  *****  WEATHER ACROSS CENTRAL AND WEST MINNESOTA  *****

CITY           SKY/WX    TMP DP  RH WIND       PRES   REMARKS
BEMIDJI        LGT SNOW  19  18  93 CALM      30.09F
PARK RAPIDS    LGT SNOW  20  17  88 NE3       30.07F VSB 1
WADENA         LGT SNOW  19  18  93 N5        30.07F WCI  13
DETROIT LAKES  LGT SNOW  21  21 100 CALM      30.09F
MOORHEAD       LGT SNOW  19  18  93 N6        30.14F WCI  11
FERGUS FALLS   LGT SNOW  19  18  93 NE6       30.10F WCI  11
ELBOW LAKE     LGT SNOW  20  19  95 NE3       30.10F
MORRIS MN      LGT SNOW  21  19  93 W3        30.08F
STAPLES        LGT SNOW  19  18  93 CALM      30.07F
WHEATON        LGT SNOW  19  18  93 N3        30.12F
$$
  *****  WEATHER ELSEWHERE ACROSS MINNESOTA  *****

CITY           SKY/WX    TMP DP  RH WIND       PRES   REMARKS
DULUTH         LGT SNOW  24  20  84 E13       30.07F VSB 1   WCI  12
INTRNTL FALLS  LGT SNOW  21  19  92 NE3       30.14F FOG
ELY            LGT SNOW  18  18 100 CALM      30.13F VSB 1
CLOQUET        LGT SNOW  23  19  86 E8        30.07F WCI  14
BRAINERD       LGT SNOW  22  18  85 NE5       30.07F FOG     WCI  16
HIBBING        LGT SNOW  19  17  92 NE3       30.09F VSB 1
ALEXANDRIA     LGT SNOW  20  18  92 NW3       30.07F FOG
SAINT CLOUD    CLOUDY    23  22  96 E3        30.07F FOG
MINNEAPOLIS    LGT SNOW  26  26 100 E7        30.05F FOG     WCI  18
$$

  *****  WEATHER ACROSS SOUTH DAKOTA  *****

CITY           SKY/WX    TMP DP  RH WIND       PRES   REMARKS
SIOUX FALLS    CLOUDY    19  18  95 W6        30.11F FOG     WCI  11
BROOKINGS      FAIR      14  11  87 W9        30.09R FOG     WCI   2
WATERTOWN      CLOUDY    16  16 100 NW6       30.06S FOG     WCI   7
HURON          MOCLDY     6   4  91 W7        30.13S FOG     WCI  -6
SISSETON         N/A     17  16  95 NW6       30.09F WCI   9
ABERDEEN       CLOUDY    16  16 100 NW6       30.13R FOG     WCI   7
MITCHELL       FOG        8   7  95 W6        30.15R VSB 1/2 WCI  -2
PIERRE         FAIR       8   6  92 NW13      30.16S WCI  -8
MOBRIDGE       MOCLDY    13   9  84 NW8       30.13R WCI   2
RAPID CITY     FAIR      -1  -6  79 NW8       30.12R WCI -15
$$

  *****  SOME WEATHER IN NEARBY STATES *****

CITY           SKY/WX    TMP DP  RH WIND       PRES   REMARKS
GLASGOW MT     FAIR     -15 -19  82 NW8       30.23F WCI -32
GREAT FALLS MT FAIR      -7 -11  83 SW8       30.12F WCI -23
CHEYENNE WY    MOCLDY    13  10  88 W10       30.00R WCI   0
SCOTTSBLUFF NE MOCLDY     9   6  88 N6        30.09F WCI  -1
OMAHA NE       CLOUDY    30  26  85 W10       30.18S WCI  21
DES MOINES IA  CLOUDY    33  31  92 W10       30.13S WCI  25
DAVENPORT IA   LGT RAIN  39  38  96 S6        30.11F FOG
CHICAGO IL     CLOUDY    39  37  92 SE9       30.14F FOG
EAU CLAIRE WI  LGT SNOW  28  27  96 E8        30.07F VSB 1   WCI  20
LA CROSSE WI   LGT RAIN  33  33 100 CALM      30.10S FOG
$$

  *****  SOME NATIONAL WEATHER *****

CITY           SKY/WX    TMP DP  RH WIND       PRES   REMARKS
LA GUARDIA NY  CLOUDY    37  32  82 NE10      30.65R
RALEIGH NC     MOCLDY    61  59  93 NE5       30.45S
ATLANTA GA     FAIR      62  60  93 SE5       30.38S
NEW ORLEANS LA FAIR      69  68  96 SE6       30.26F
OKLAHOMA CITY  FOG       32  32 100 CALM      30.19S VSB 1/2
ALBUQUERQUE NM FAIR      31  14  49 E10       30.10F WCI  22
SALT LAKE CITY FAIR      28  23  81 N5        29.93F WCI  23
LOS ANGELES CA FAIR      50  39  66 N6        30.18S
BOISE ID       FAIR      17  11  77 W6        30.15R WCI   9
SEATTLE WA     FAIR      26  20  77 SE8       30.44R WCI  18
$$

*** WEATHER ACROSS MANITOBA...SASKATCHEWAN AND ONTARIO ***
                ***ONTARIO***

CITY           SKY/WX    TMP DP  RH WIND       PRES   REMARKS
GERALDTON      CLOUDY    21  18  86 SW6       30.24F WCI  14
THUNDER BAY    LGT SNOW  18  16  93 S3        30.25F
SIOUX LOOKOUT  CLOUDY     7   1  78 CALM      30.16F
TORONTO        CLOUDY    30  25  80 E12G20    30.47F WCI  21
BIG TROUT LK   CLEAR     10   0  61 W10       30.06F WCI  -3
PICKLE LAKE    NOT AVBL
DRYDEN         CLOUDY    16   3  57 S7        30.15F WCI   6
KENORA         MOCLDY    14   5  67 W3        30.14F
$$
                *** MANITOBA***

CITY           SKY/WX    TMP DP  RH WIND       PRES   REMARKS
BRANDON        CLEAR     -6 -11  77 W10       30.17F WCI -23
DAUPHIN        CLEAR      5   0  78 W10       30.19F WCI -10
ISLAND LAKE    CLEAR     -2  -8  78 VRB2      30.14S
PILOT MOUND      N/A      1  -2  85 NW5         N/A  WCI  -8
THE PAS        MOCLDY    -9 -17  70 SE2       30.15F
THOMPSON       CLEAR    -20 -26  76 CALM      30.14R
WINNIPEG       MOCLDY    -2  -8  78 W7        30.17F WCI -16
LYNN LAKE      CLEAR    -20 -26  76 S3        30.05S
CHURCHILL      PTCLDY   -22 -31  63 NW17G26   30.06R WCI -49
GILLAM         CLEAR    -11 -20  64 W10       30.12R WCI -30
$$
                ***SASKATCHEWAN***

CITY           SKY/WX    TMP DP  RH WIND       PRES   REMARKS
ESTEVAN        LGT SNOW   0  -6  78 W6        30.20F WCI -12
KINDERSLEY     PTCLDY    -2  -8  78 S5        30.13F WCI -12
LLOYDMINSTER   CLEAR      7   3  85 SW14      30.03F WCI -10
PRINCE ALBERT  PTCLDY   -11 -15  84 SW2       30.17F
REGINA         MOCLDY    -6  -9  84 W9        30.18F WCI -22
YORKTON        PTCLDY     0  -2  92 W7        30.16F WC



USA.gov is the U.S. government's official web portal to all federal, state and local government web resources and services.